[TLELIST] Archives

 

[list_settings.list_name] Current TLEs

October 18th 2014 PDT

HST 1 20580U 90037B 14291.14945383 .00001362 00000-0 79537-4 0 1379 2 20580 028.4708 308.5596 0003228 157.7912 271.2025 15.05943460143261 ISS (ZARYA) 1 25544U 98067A 14291.22758090 .00012910 00000-0 22940-3 0 2581 2 25544 051.6466 209.6892 0002474 268.2718 247.1843 15.50542224910411 CXO 1 25867U 99040B 14292.19207431 .00000047 00000-0 00000+0 0 963 2 25867 077.0089 315.8112 7931914 272.5247 000.0978 00.37802404 12381 ____________________________________________________________________ These 2-Line ...Continue Reading

[list_settings.list_name] Current TLEs

October 17th 2014 PDT

HST 1 20580U 90037B 14289.50405269 .00001526 00000-0 90609-4 0 1364 2 20580 028.4711 319.3845 0003259 139.4638 351.5672 15.05934665143029 ISS (ZARYA) 1 25544U 98067A 14290.37997834 .00013071 00000-0 23234-3 0 2550 2 25544 051.6472 213.8906 0002442 267.1887 193.8986 15.50520029910280 CXO 1 25867U 99040B 14292.19207431 .00000047 00000-0 00000+0 0 963 2 25867 077.0089 315.8112 7931914 272.5247 000.0978 00.37802404 12381 ____________________________________________________________________ These 2-Line ...Continue Reading

[list_settings.list_name] Current TLEs

October 16th 2014 PDT

HST 1 20580U 90037B 14288.16478764 .00001748 00000-0 10552-3 0 1358 2 20580 028.4711 328.1946 0003338 126.3045 289.7635 15.05927774142814 ISS (ZARYA) 1 25544U 98067A 14289.41354317 .00013543 00000-0 24064-3 0 2507 2 25544 051.6470 218.6827 0002516 262.4775 200.5845 15.50496590910138 CXO 1 25867U 99040B 14289.54729414 .00000085 00000-0 00000+0 0 959 2 25867 077.0064 315.9076 7933172 272.5796 000.0162 00.37798474 12376 ____________________________________________________________________ These 2-Line ...Continue Reading

[list_settings.list_name] Current TLEs

October 15th 2014 PDT

HST 1 20580U 90037B 14288.16478764 .00001748 00000-0 10552-3 0 1358 2 20580 028.4711 328.1946 0003338 126.3045 289.7635 15.05927774142814 ISS (ZARYA) 1 25544U 98067A 14288.18490882 .00012731 00000-0 22700-3 0 2455 2 25544 051.6462 224.7734 0002511 257.2960 183.3241 15.50458698909949 CXO 1 25867U 99040B 14289.54729414 .00000085 00000-0 00000+0 0 959 2 25867 077.0064 315.9076 7933172 272.5796 000.0162 00.37798474 12376 ____________________________________________________________________ These 2-Line ...Continue Reading

[list_settings.list_name] Current TLEs

October 14th 2014 PDT

HST 1 20580U 90037B 14286.52324093 .00001935 00000-0 11811-3 0 1347 2 20580 028.4712 338.9935 0003426 109.8130 029.3322 15.05916770142579 ISS (ZARYA) 1 25544U 98067A 14287.15852272 .00013374 00000-0 23825-3 0 2404 2 25544 051.6460 229.8596 0002475 253.1327 214.8289 15.50434067909788 CXO 1 25867U 99040B 14289.54729414 .00000085 00000-0 00000+0 0 959 2 25867 077.0064 315.9076 7933172 272.5796 000.0162 00.37798474 12376 ____________________________________________________________________ These 2-Line ...Continue Reading

[list_settings.list_name] Current TLEs

October 13th 2014 PDT

HST 1 20580U 90037B 14285.45997447 .00002240 00000-0 13859-3 0 1330 2 20580 028.4713 345.9901 0003475 099.8521 023.6291 15.05911105142419 ISS (ZARYA) 1 25544U 98067A 14286.26529391 .00013904 00000-0 24756-3 0 2366 2 25544 051.6465 234.2873 0002556 250.3191 268.7827 15.50411839909642 CXO 1 25867U 99040B 14286.90275107 .00000095 00000-0 00000+0 0 941 2 25867 076.9984 315.9974 7936888 272.6420 359.9485 00.37800630 12365 ____________________________________________________________________ These 2-Line ...Continue Reading

[list_settings.list_name] Current TLEs

October 12th 2014 PDT

HST 1 20580U 90037B 14283.67300571 .00002362 00000-0 14682-3 0 1327 2 20580 028.4714 357.7451 0003490 082.9787 053.7392 15.05901534142146 ISS (ZARYA) 1 25544U 98067A 14285.28477414 .00014077 00000-0 25079-3 0 2300 2 25544 051.6468 239.1478 0002580 247.7427 195.0404 15.50384428909498 CXO 1 25867U 99040B 14286.90275107 .00000095 00000-0 00000+0 0 941 2 25867 076.9984 315.9974 7936888 272.6420 359.9485 00.37800630 12365 ____________________________________________________________________ These 2-Line ...Continue Reading

[list_settings.list_name] Current TLEs

October 11th 2014 PDT

HST 1 20580U 90037B 14283.67300571 .00002362 00000-0 14682-3 0 1327 2 20580 028.4714 357.7451 0003490 082.9787 053.7392 15.05901534142146 ISS (ZARYA) 1 25544U 98067A 14284.19952447 .00014029 00000-0 25023-3 0 2264 2 25544 051.6468 244.5278 0002596 241.7292 259.9188 15.50352800909327 CXO 1 25867U 99040B 14286.90275107 .00000095 00000-0 00000+0 0 941 2 25867 076.9984 315.9974 7936888 272.6420 359.9485 00.37800630 12365 ____________________________________________________________________ These 2-Line ...Continue Reading

[list_settings.list_name] Current TLEs

October 10th 2014 PDT

HST 1 20580U 90037B 14282.53918267 .00003105 00000-0 19673-3 0 1318 2 20580 028.4715 005.2037 0003503 071.4316 026.4307 15.05892626141961 ISS (ZARYA) 1 25544U 98067A 14283.23325884 .00013193 00000-0 23606-3 0 2218 2 25544 051.6467 249.3182 0002619 238.2815 266.8597 15.50322901909174 CXO 1 25867U 99040B 14284.25845861 .00000036 00000-0 00000+0 0 931 2 25867 076.9901 316.1147 7941268 272.6870 359.9239 00.37805185 12352 ____________________________________________________________________ These 2-Line ...Continue Reading

[list_settings.list_name] Current TLEs

October 9th 2014 PDT

HST 1 20580U 90037B 14280.68957903 .00003105 00000-0 19680-3 0 1309 2 20580 028.4715 017.3693 0003407 054.4856 076.5281 15.05877643141695 ISS (ZARYA) 1 25544U 98067A 14282.19243994 .00080133 00000-0 13824-2 0 2165 2 25544 051.6467 254.4712 0002800 231.1874 221.1952 15.50312389909010 CXO 1 25867U 99040B 14284.25845861 .00000036 00000-0 00000+0 0 931 2 25867 076.9901 316.1147 7941268 272.6870 359.9239 00.37805185 12352 ____________________________________________________________________ These 2-Line ...Continue Reading
  • This mailing list is a public mailing list - anyone may join or leave, at any time.
  • This mailing list is announce-only.

International Space Station (ISS) / Hubble Space Telescope (HST) / Chandra X-Ray Observatory Orbital Data via EMAIL

Privacy Policy:

Private list